Regional Weather Roundup
Issued by NWS

Home | Current Version | Previous Version | Graphics & Text | Print | Product List | Glossary Off
Versions: 1 2 3 4 5 6 7 8 9 10 11 12 13 14 15 16 17 18 19 20 21 22 23 24 25 26 27 28 29 30 31 32 33 34 35 36 37 38 39 40 41 42 43 44 45 46 47 48 49 50

000
ASUS43 KMPX 191301
RWRMN
WEATHER ROUNDUP FOR MINNESOTA
NATIONAL WEATHER SERVICE TWIN CITIES/CHANHASSEN MN
800 AM CDT SAT APR 19 2014


NOTE: "FAIR" INDICATES FEW OR NO CLOUDS BELOW 12,000 FEET WITH NO
SIGNIFICANT WEATHER AND/OR OBSTRUCTIONS TO VISIBILITY. N/A MEANS
CURRENT SKY AND/OR WEATHER CONDITIONS ARE NOT AVAILABLE.

MNZ060>063-068>070-191400-
   Twin Cities Metro

CITY           SKY/WX    TMP DP  RH WIND       PRES   REMARKS
TWIN CITIES    PTSUNNY   44  32  62 SE23      30.13S
ST PAUL        MOSUNNY   43  31  62 SE24G35   30.15R
CRYSTAL        MOSUNNY   45  32  60 SE20G31   30.09F
BLAINE         MOSUNNY   45  34  65 SE24G32   30.10F
EDEN PRAIRIE   MOSUNNY   46  33  60 SE20      30.10S
LAKEVILLE      MOSUNNY   39  32  75 SE23G31   30.12S
SOUTH ST PAUL  MOSUNNY   45  32  60 SE18G26   30.15R
LAKE ELMO      FAIR      43  32  65 SE18G25   30.16S
$$
MNZ001>005-007-008-013>017-022>024-027-028-191400-
   Northwest Minnesota

CITY           SKY/WX    TMP DP  RH WIND       PRES   REMARKS
BEMIDJI        CLOUDY    42  35  77 S15G29    29.86S
HALLOCK        CLOUDY    41  36  81 S14       29.71F
ROSEAU         CLOUDY    39  32  75 SE18      29.77F
WARROAD        CLOUDY    37  32  81 SE17G25   29.80F
THIEF RVR FALL CLOUDY    46  36  66 S16       29.77S
CROOKSTON      PTSUNNY   46  39  76 S10       29.78R
FOSSTON        CLOUDY    45  36  70 S20G29    29.79R
DETROIT LAKES  CLOUDY    45  37  76 S16       29.84R
MOORHEAD       CLOUDY    48  43  81 S13       29.81R
PARK RAPIDS    CLOUDY    40  37  89 S21G29    29.87S
$$
MNZ006-009>011-018-025>026-191400-
   North Central Minnesota

CITY           SKY/WX    TMP DP  RH WIND       PRES   REMARKS
BAUDETTE       CLOUDY    36  31  82 SE14G28   29.86F
FLAG ISLAND    LGT RAIN  34  30  86 SE15G24   29.83F WCI  24
INTL FALLS     CLOUDY    34  31  88 SE16G25   29.97F WCI  24
WASKISH        CLOUDY    39  32  75 SE15G28   29.86F
BIG FORK       RAIN      37  30  75 SE15G23   29.95F
LONGVILLE      RAIN      37  36  93 SE13G23   29.94S
GRAND RAPIDS   CLOUDY    36  30  80 SE10G18   29.99S
CRANE LAKE     MIX PCPN  32  30  93 SE7       30.07F WCI  26
ORR            CLOUDY    34  30  86 SE14G23   30.00R WCI  24
COOK           MIX PCPN  34  30  86 SE10G21   30.02F WCI  26
$$
MNZ012-019>021-037-191400-
   Northeast Minnesota

CITY           SKY/WX    TMP DP  RH WIND       PRES   REMARKS
DULUTH         FRZ RAIN  34  28  79 SE20      30.11F WCI  23
ELY            MIX PCPN  32  30  93 SE17G26   30.10F WCI  21
HIBBING        LGT RAIN  34  29  82 SE14G25   30.06S WCI  25
EVELETH        MIX PCPN  34  32  93 SE12G21   30.07F WCI  25
DULUTH HARBOR  MIX PCPN  34  30  86 NE13      30.17F WCI  25
TWO HARBORS    LGT RAIN  32  27  80 E13G20    30.16F WCI  22
SILVER BAY     RAIN      30  30 100 NE12G17   30.21R WCI  21
GRAND MARAIS     N/A     33  28  81 NE15G23   30.32F WCI  23
G MARAIS ARPRT CLOUDY    27  21  80 E10G16    30.26F WCI  17
$$
MNZ029>031-032-039>041-046>048-054>057-064-191400-
   West Central Minnesota

CITY           SKY/WX    TMP DP  RH WIND       PRES   REMARKS
FERGUS FALLS   CLOUDY    46  37  71 S18       29.83R
WHEATON        CLOUDY    52  45  76 SE16      29.86R
MORRIS         CLOUDY    48  41  76 S22       29.88R
ALEXANDRIA     CLOUDY    48  37  65 S25G33    29.92S
ELBOW LAKE     FAIR      47  40  75 S23G31    29.87R
WADENA         LGT RAIN  43  37  81 S18G28    29.88F
GLENWOOD       CLOUDY    48  37  66 S25G32    29.95R
APPLETON       CLOUDY    52  41  66 SE16G23   29.90R
BENSON         CLOUDY    48  39  71 S18       29.93R
ORTONVILLE     CLOUDY    54  41  62 S14G22    29.88R
MADISON        CLOUDY    57  43  58 S20       29.89R
WILLMAR        FAIR      46  36  66 SE18G24   29.99R
$$
MNZ033>034-036-042>043-049>051-058-059-191400-
   Central Minnesota

CITY           SKY/WX    TMP DP  RH WIND       PRES   REMARKS
ST CLOUD       CLOUDY    42  32  67 SE21      30.02R
SAUK CENTRE    CLOUDY    44  35  70 S25G32    29.98R
PAYNESVILLE    CLOUDY    44  33  65 SE17G28   30.00R
AITKIN         CLOUDY    43  34  70 SE24      29.98S
PINE RIVER     CLOUDY    41  36  81 S16       29.98S
BRAINERD       CLOUDY    48  32  53 S16G30    29.99R
STAPLES        CLOUDY    43  34  70 SE15G26   29.92F
LONG PRAIRIE   CLOUDY    45  36  70 SE18G28   29.97R
LITTLE FALLS   CLOUDY    43  32  65 SE15G23   30.00R
LITCHFIELD     PTSUNNY   45  36  70 SE13G24   30.02R
BUFFALO        MOSUNNY   45  34  63 SE15G26   30.06S
MAPLE LAKE     PTSUNNY   46  36  69 SE13G22   30.05S
$$
MNZ037-044-045-052-053-191400-
   East Central Minnesota

CITY           SKY/WX    TMP DP  RH WIND       PRES   REMARKS
PRINCETON      PTSUNNY   45  34  65 SE18G33   30.06S
MORA           PTSUNNY   37  30  75 S15G23    30.10S
CAMBRIDGE      PTSUNNY   45  30  57 SE10G23   30.06F
RUSH CITY      PTSUNNY   39  30  69 SE15G32   30.10F
MOOSE LAKE     CLOUDY    39  27  60 S14G20    30.07S
HINCKLEY       FAIR      39  30  70 SE14G23   30.10S
CLOQUET        MIX PCPN  34  30  86 SE9G16    30.10F WCI  26
MCGREGOR       CLOUDY    39  32  75 SE15G26   30.04R
$$
MNZ071>073-080-081-089-090-097-098-191400-
   Southwest Minnesota

CITY           SKY/WX    TMP DP  RH WIND       PRES   REMARKS
MONTEVIDEO     CLOUDY    52  43  71 S18G24    29.94R
GRANITE FALLS  CLOUDY    51  41  70 SE21G31   29.96R
CANBY          PTSUNNY   54  41  62 S16G24    29.91R
MARSHALL       PTSUNNY   52  39  62 S21G36    29.91R
REDWOOD FALLS  CLOUDY    48  36  63 S28G39    29.96F
OLIVIA         CLOUDY    50  37  62 SE18G26   29.97R
PIPESTONE      MOSUNNY   50  41  71 S24G30    29.93S
WINDOM         PTSUNNY   52  39  62 S23G32    30.02R
WORTHINGTON    PTSUNNY   48  36  61 S24G32    30.01S
JACKSON        MOSUNNY   50  36  57 S22G29    30.04F
TRACY          PTSUNNY   51  41  69 S25G33    29.93F
SLAYTON        PTSUNNY   48  40  73 S22G32    29.97S
$$
MNZ065>067-074>077-082>085-091>093-191400-
   South Central Minnesota

CITY           SKY/WX    TMP DP  RH WIND       PRES   REMARKS
MANKATO        MOSUNNY   45  34  65 S30G43    30.07F
NEW ULM        PTSUNNY   46  36  66 S23G31    30.04R
ST JAMES       MOSUNNY   46  36  66 SE24G35   30.05S
FAIRMONT       MOSUNNY   45  32  61 SE26      30.09F
GLENCOE        PTSUNNY   46  34  63 SE21G28   30.05F
FARIBAULT      MOSUNNY   45  28  53 SE23G37   30.12F
OWATONNA       SUNNY     39  32  75 SE26G39   30.14F
WASECA         SUNNY     41  34  75 SE26G39   30.13F
ALBERT LEA     SUNNY     39  32  75 SE23G30   30.17S
$$
MNZ078>079-086>088-094>096-191400-
   Southeast Minnesota

CITY           SKY/WX    TMP DP  RH WIND       PRES   REMARKS
ROCHESTER      MOSUNNY   38  27  64 SE23      30.21S
RED WING       SUNNY     41  28  60 SE17G31   30.18F
STANTON        MOSUNNY   43  30  61 SE26G37   30.11F
DODGE CENTER   MOSUNNY   41  30  65 SE22G31   30.19S
WINONA         SUNNY     41  27  56 SE16      30.28S
AUSTIN         MOSUNNY   39  30  70 SE13G21   30.20S
PRESTON        MOSUNNY   37  26  64 SE17G23   30.25S
$$
ABBREVIATIONS USED IN REMARKS
   TC - TEMPERATURES IN CELSIUS
  WCI - WIND CHILL INDEX
   HX - HEAT INDEX
  VSB - VISIBILITY
$$


USA.gov is the U.S. government's official web portal to all federal, state and local government web resources and services.